Find Starlink 31641

NORAD ID: 59374 Int'l Des: 2024-062 Owner: SPXS Country: US Constellation: starlink operational
LEOCIRCULAR

当前视图

正在加载3D地球...

About Starlink 31641

Starlink 31641 (NORAD 59374) is a starlink constellation satellite (v2 mini) launched Apr 2, 2024 by SPXS of US. It operates in LEO, CIRCULAR orbit with a mass of 730.00 kg.

即将过境

Passes for default location (London). Set your location on the main map for personalized predictions.

高度历史

Loading altitude history...

两行轨道根数

1 59374U 24062A 26228.49601280 -.00000559 00000-0 -54184-5 0 9990
2 59374 53.1592 233.0255 0001279 74.4073 285.7071 15.34397808134139
Epoch: Aug 16, 2026 • Age: 20 hours

当前状态

高度 469.8 km
远地点 / 近地点 N/A
速度 7.63 km/s
星下点 -22.96°S, 11.66°W
发射日期 Apr 2, 2024
运行时间 2.3 years
类型 internet

技术详情

分类 Payload
质量 730.00 kg
干质量 700.00 kg
总质量 730.00 kg
长度 0.30 m
直径 4.10 m
跨度 29.00 m
形状 Box + pan
制造商 SPXS
平台类型 Starlink V2M
阶段状态 In Orbit
所有者/国家 SPXS/US

Most Searched